Tracking 33195 objects as of 8-Feb-2026
HD Live streaming from Space Station
objects crossing your sky now

STARLINK-36547

Track STARLINK-36547 now!
10-day predictions
STARLINK-36547 is classified as:


NORAD ID: 67520
Int'l Code: 2026-012AD
Perigee: 384.3 km
Apogee: 386.2 km
Inclination: 43.0 °
Period: 92.1 minutes
Semi major axis: 6756 km
RCS: Unknown
Launch date: January 18, 2026
Source: United States (US)
Launch site: AIR FORCE EASTERN TEST RANGE (AFETR)
Your satellite tracking list
Your tracking list is empty




NASA's NSSDC Master Catalog

Two Line Element Set (TLE):
1 67520U 26012AD  26039.25002315 -.01917393  00000-0 -22966-1 0  9990
2 67520  42.9990 122.0304 0001383 271.2576  85.7925 15.63302416  4283
Source of the keplerian elements: AFSPC